Date,TemperatureHighF,TemperatureAvgF,TemperatureLowF,DewpointHighF,DewpointAvgF,DewpointLowF,HumidityHigh,HumidityAvg,HumidityLow,PressureMaxIn,PressureMinIn,WindSpeedMaxMPH,WindSpeedAvgMPH,GustSpeedMaxMPH,PrecipitationSumIn
2013-5-1,48,39,34,32,26,20,71,59,52,30.55,30.03,13,6,25,0.00
2013-5-2,45,37,30,27,24,23,81,62,43,30.64,30.48,16,5,26,0.00
2013-5-3,49,38,26,28,23,20,83,58,35,30.48,30.18,14,5,22,0.00
2013-5-4,41,38,35,38,35,29,96,90,63,30.22,30.15,12,4,19,0.03
2013-5-5,50,44,38,43,40,37,99,88,74,30.21,30.13,7,2,11,0.00
2013-5-6,70,55,42,50,44,40,91,71,46,30.15,30.03,6,1,12,0.00
2013-5-7,78,62,43,49,43,39,91,55,27,30.08,29.93,9,1,14,0.00
2013-5-8,64,58,55,57,53,47,96,85,55,30.03,29.96,7,1,11,0.36
2013-5-9,58,54,47,54,50,37,96,87,68,30.15,30.00,10,4,17,0.19
2013-5-10,69,52,37,48,34,24,81,53,23,30.16,29.91,14,3,28,0.00
2013-5-11,53,45,38,35,24,16,72,47,25,30.25,30.05,17,6,28,0.00
2013-5-12,61,48,31,26,22,18,68,39,19,30.26,30.09,8,2,16,0.00
2013-5-13,86,66,46,52,37,22,48,35,22,30.09,29.65,14,3,25,0.00
2013-5-14,94,74,55,53,44,32,66,38,15,29.81,29.53,11,3,25,0.00
2013-5-15,81,65,51,53,46,41,75,53,25,29.96,29.81,7,2,14,0.00
2013-5-16,85,70,52,52,44,38,76,44,20,29.92,29.80,7,1,14,0.00
2013-5-17,71,63,59,61,53,40,93,71,38,29.92,29.86,7,2,12,0.01
2013-5-18,83,71,59,67,61,57,94,74,51,29.90,29.73,9,2,22,0.01
2013-5-19,76,68,62,65,62,60,97,84,64,29.73,29.55,11,2,20,0.58
2013-5-20,69,62,60,61,57,53,99,85,59,29.57,29.48,10,2,21,0.09
2013-5-21,60,54,48,57,53,47,99,95,84,29.76,29.49,7,2,13,0.67
2013-5-22,54,49,46,50,46,44,97,92,74,30.06,29.76,13,4,26,0.27
2013-5-23,64,54,43,44,39,32,92,62,31,30.32,30.06,8,1,16,0.01
2013-5-24,69,55,44,55,42,33,85,64,31,30.32,30.12,10,1,18,0.12
2013-5-25,58,55,52,52,50,47,88,82,69,30.17,30.09,7,2,17,0.00
2013-5-26,54,52,49,50,48,45,93,88,81,30.17,30.00,6,2,13,0.03
2013-5-27,62,56,52,55,53,50,98,88,79,30.03,29.81,4,1,7,0.00
2013-5-28,67,58,54,58,55,53,97,89,72,29.81,29.70,3,0,5,0.00
2013-5-29,80,64,53,70,60,53,100,88,62,29.81,29.54,9,1,22,1.13
2013-5-30,77,68,63,64,60,58,96,78,53,29.59,29.46,12,3,22,0.13
2013-5-31,67,62,57,61,53,50,92,72,57,29.54,29.43,11,4,25,0.11